Wind_Speed
30 29 28 28 29 30 31 32 33 34 35 35 35 35 33 33 33 32 33 33 33 33 32 33 33 34 34 33 32 31 31 31 31 31 32 34 35 36 37 37 38 39 40
33 32 31 30 30 31 32 33 34 34 34 35 36 36 35 35 34 33 34 34 34 34 34 35 35 35 36 35 35 34 34 34 35 36 37 38 39 40 41 41 42 43 43
34 34 33 32 32 33 33 34 34 35 35 35 36 36 36 35 35 34 34 34 34 35 35 36 36 37 38 38 38 37 37 38 39 40 42 43 44 45 46 47 48 49 49
35 35 35 35 34 35 35 35 35 36 36 36 36 36 37 36 35 35 34 34 35 36 37 38 38 39 40 41 41 41 41 42 43 45 47 48 49 51 52 53 54 55 55
36 37 37 37 36 37 37 37 37 37 36 36 37 37 37 36 36 36 35 36 37 38 40 41 42 43 44 44 44 44 45 46 47 49 51 53 54 55 56 56 57 58 58
38 38 38 38 38 38 38 38 38 38 38 38 38 38 38 38 38 38 39 40 41 42 43 44 45 46 47 47 47 48 49 51 52 54 55 56 57 58 59 59 59 60 60
39 39 39 39 40 40 39 39 40 40 40 40 40 40 41 41 41 42 43 44 45 46 46 47 48 49 50 50 51 52 53 55 57 58 59 60 60 61 61 61 61 62 63
40 40 40 40 41 40 40 40 40 41 41 42 42 43 44 44 45 46 46 47 48 48 49 50 51 52 53 53 54 55 57 59 61 62 63 63 63 63 63 64 65 66 67
40 39 40 40 40 40 40 40 41 41 42 44 45 46 47 47 47 47 48 49 50 50 51 52 53 55 56 57 58 60 62 63 65 66 66 66 67 67 68 69 70 71 71
38 38 39 40 40 40 40 41 42 42 43 45 47 48 49 50 50 49 48 50 50 51 53 54 55 57 59 61 63 65 67 68 69 69 70 71 71 72 73 73 74 75 75
38 38 39 39 39 40 41 42 43 44 45 46 48 49 50 51 51 50 49 50 51 53 54 55 56 58 61 64 66 68 70 71 72 73 73 73 74 75 76 76 77 77 78
39 38 39 39 39 39 40 42 44 45 46 48 49 50 51 51 51 52 52 51 52 52 54 56 59 61 64 66 67 69 71 72 73 73 74 75 76 77 78 79 80 82 84
39 38 38 38 38 39 41 42 44 46 47 48 49 50 51 51 52 54 55 54 53 53 55 58 62 65 67 68 69 70 71 72 73 74 76 77 79 81 83 86 89 92 94
38 38 38 38 39 40 41 43 44 46 47 47 48 49 50 52 53 55 56 56 55 56 59 61 64 66 68 70 71 72 73 74 75 77 79 82 86 90 93 97 100 102 105
39 39 38 38 39 40 41 43 44 45 46 47 48 49 51 53 54 55 56 58 61 63 63 63 65 67 69 70 72 74 75 78 80 84 88 92 96 100 103 105 106 105 103
40 39 38 38 38 40 41 42 44 45 47 48 49 51 53 55 55 56 59 62 65 67 67 67 69 70 71 72 75 78 81 85 89 94 99 102 105 106 104 100 94 86 79
39 38 37 37 38 40 41 43 44 46 48 50 52 53 55 55 57 60 62 64 66 68 69 68 70 72 74 77 80 84 89 93 98 102 104 104 101 95 86 77 67 60 55
38 37 37 38 39 40 42 44 46 48 50 52 54 56 56 58 60 63 64 65 67 68 70 70 71 74 78 83 87 91 96 100 101 100 96 90 81 71 62 54 49 45 43
38 37 37 39 40 41 43 46 48 51 52 54 56 57 59 61 63 64 66 67 68 69 71 73 76 80 85 90 94 98 99 97 91 84 76 68 60 53 48 45 42 40 38
37 37 38 39 41 43 45 48 50 52 54 56 58 60 62 63 64 65 66 67 68 71 75 79 82 87 92 97 99 97 90 81 71 63 57 53 48 46 44 42 40 39 38
36 37 38 41 43 46 47 49 50 53 55 58 60 61 62 64 64 65 66 68 72 76 80 84 89 94 97 97 93 85 74 62 54 52 48 46 45 43 43 42 41 40 39
36 37 41 43 45 46 48 49 51 55 57 59 60 61 62 63 63 65 68 72 77 82 87 92 96 98 95 89 79 67 58 51 47 48 47 43 43 42 42 43 42 41 39
37 40 42 44 45 46 48 51 54 56 58 59 60 61 61 62 64 68 72 77 83 89 94 97 96 91 82 71 62 54 50 48 47 47 46 42 41 40 41 42 43 41 38
38 41 43 44 45 47 50 53 55 56 57 59 59 60 62 64 68 72 76 81 87 93 95 92 86 75 65 56 52 50 48 46 43 44 45 42 39 38 38 40 42 40 38
39 41 42 43 46 48 51 53 54 55 57 57 59 61 65 68 72 77 82 87 91 91 88 79 70 60 53 51 51 49 47 46 42 41 44 42 39 36 34 37 40 39 36
38 39 41 44 47 49 51 52 54 54 55 57 61 65 69 73 78 83 87 89 88 82 72 62 55 51 50 50 50 49 47 46 44 42 42 40 37 36 31 32 37 37 34
Wind_Direction
281 283 283 282 281 281 281 281 280 277 274 273 273 274 276 278 281 281 279 278 277 280 284 290 294 297 297 296 294 291 289 287 285 283 282 280 279 278 276 275 274 272 271
281 283 283 282 281 282 283 284 283 280 277 275 276 276 277 278 280 282 282 280 279 281 285 290 293 296 296 295 293 290 288 287 286 285 284 284 283 281 280 278 276 274 273
279 281 282 281 280 281 282 283 283 281 279 279 280 279 279 281 283 284 283 282 282 284 288 292 294 296 297 296 293 290 288 287 287 286 285 284 283 282 281 279 278 276 274
278 280 282 281 281 280 281 282 282 281 281 281 282 282 282 284 286 286 285 284 285 288 291 294 295 296 296 295 292 289 288 287 286 286 285 284 283 281 280 278 277 276 275
279 281 283 283 282 280 280 281 281 281 281 282 283 283 283 285 287 287 287 288 289 290 292 294 295 296 295 294 291 288 286 285 285 285 285 285 284 283 281 279 277 276 274
280 282 283 284 282 280 279 280 281 281 281 281 282 283 283 284 286 287 288 289 290 291 292 293 294 294 293 292 289 287 285 285 285 286 286 286 285 284 282 280 278 276 275
279 281 283 283 282 280 279 280 281 282 281 281 282 282 284 285 286 287 289 289 290 291 292 292 292 292 292 291 289 287 286 286 286 287 287 287 286 284 283 281 280 278 277
279 281 282 283 282 280 278 279 281 282 282 281 282 283 283 285 286 288 289 289 290 290 291 291 291 292 292 291 289 289 288 289 288 288 288 287 286 285 284 282 281 280 278
279 281 283 283 282 279 278 279 281 282 282 282 283 284 285 286 286 287 288 290 291 292 292 293 293 293 293 292 292 292 292 292 291 291 290 289 288 287 285 284 282 281 279
280 281 281 281 280 278 278 279 281 282 283 284 285 286 288 288 288 289 290 291 292 293 293 294 294 294 295 295 296 296 296 295 294 293 292 291 290 288 287 286 284 282 280
277 279 280 280 280 279 279 281 283 284 285 286 287 288 289 289 290 291 292 293 293 294 294 293 293 294 295 296 296 295 295 294 294 293 292 291 290 288 287 285 284 282 280
275 278 279 281 281 281 282 283 285 286 287 288 290 290 291 291 292 292 292 292 292 293 293 294 294 295 295 295 294 294 293 293 292 292 291 289 288 287 285 284 283 281 280
273 276 279 281 282 283 284 285 287 288 290 291 292 293 293 293 294 294 294 294 293 294 294 295 296 296 296 295 295 294 294 293 292 291 290 289 287 286 285 284 283 282 280
271 275 279 281 284 285 287 288 289 291 292 293 294 295 295 295 295 295 295 295 295 296 297 297 297 297 297 297 297 296 295 293 292 291 289 288 287 287 286 285 284 283 281
269 273 279 283 286 288 289 290 291 292 294 295 295 295 295 296 296 296 296 298 298 298 298 299 299 299 298 298 298 297 296 295 294 293 292 291 290 290 289 287 286 284 282
268 274 280 284 287 289 291 292 293 294 295 296 296 296 296 297 297 298 299 300 301 301 301 302 301 302 301 301 300 299 298 298 297 296 295 295 294 292 291 290 288 286 284
268 274 280 284 287 289 291 292 294 296 296 296 296 297 298 299 300 301 301 302 302 303 303 304 304 304 303 302 302 302 301 301 300 298 297 296 295 294 293 291 288 285 281
270 276 281 284 287 289 292 293 294 296 296 296 297 298 300 301 302 302 303 303 304 305 305 305 305 304 304 304 303 303 303 302 301 299 297 296 295 294 293 290 286 282 278
272 277 282 285 287 290 292 294 294 295 295 296 298 300 301 302 303 304 305 306 306 307 307 307 307 307 306 306 305 305 304 303 301 299 297 296 295 294 292 288 285 282 281
274 279 284 287 289 290 291 292 293 294 296 298 300 301 303 304 305 306 307 307 308 308 308 308 308 308 308 307 307 306 305 303 301 298 297 297 295 293 291 289 286 285 284
276 281 285 287 288 288 290 292 293 295 297 299 301 302 304 305 306 307 308 308 309 309 309 309 309 309 309 308 307 307 305 303 300 297 297 296 294 292 290 288 286 286 285
277 282 285 286 287 289 291 293 294 296 298 300 302 304 305 306 307 308 309 310 310 310 309 310 310 310 310 309 308 307 305 303 299 296 296 294 292 290 288 286 285 285 285
279 282 284 286 289 291 292 293 295 297 300 302 303 304 305 307 308 309 310 310 311 311 311 311 311 311 311 310 309 308 306 305 303 299 295 292 289 288 286 284 284 284 283
278 282 286 288 290 291 293 295 297 300 301 303 304 305 306 308 309 309 310 311 311 312 312 312 312 311 311 310 309 309 308 307 307 304 300 297 292 288 286 284 283 283 282
282 285 288 290 291 293 295 297 299 301 303 304 305 306 308 309 309 310 311 312 313 313 313 312 312 312 312 311 311 311 310 309 309 308 304 303 297 291 287 285 283 282 280
286 289 290 292 294 295 297 299 301 303 304 305 307 308 309 310 311 311 313 313 314 314 313 312 312 313 313 313 313 313 312 311 310 309 305 304 300 294 288 283 282 281 279
Height
5810 5810 5810 5810 5809 5809 5808 5808 5808 5808 5808 5808 5807 5807 5806 5806 5805 5803 5802 5801 5799 5798 5797 5795 5793 5792 5790 5788 5785 5783 5782 5781 5780 5779 5779 5778 5777 5777 5777 5776 5776 5776 5776
5804 5804 5804 5804 5803 5802 5802 5801 5801 5801 5801 5800 5800 5799 5799 5798 5797 5796 5794 5793 5792 5790 5789 5787 5786 5784 5782 5780 5778 5776 5774 5773 5772 5771 5770 5769 5768 5768 5767 5767 5767 5767 5767
5797 5797 5797 5797 5796 5796 5795 5795 5794 5794 5794 5793 5792 5792 5791 5790 5789 5788 5787 5785 5783 5782 5781 5779 5777 5775 5773 5771 5769 5767 5765 5764 5762 5761 5760 5759 5758 5757 5757 5756 5755 5755 5755
5791 5790 5790 5790 5789 5789 5788 5788 5787 5787 5786 5786 5785 5784 5784 5782 5781 5780 5778 5777 5775 5774 5772 5770 5768 5766 5764 5761 5759 5757 5756 5754 5752 5750 5749 5748 5747 5746 5745 5744 5743 5742 5741
5784 5784 5783 5783 5782 5782 5781 5780 5780 5779 5779 5779 5778 5777 5776 5774 5773 5771 5770 5768 5766 5765 5763 5760 5758 5756 5753 5751 5749 5746 5744 5743 5741 5739 5737 5735 5733 5732 5731 5730 5728 5727 5726
5778 5777 5777 5776 5775 5774 5774 5773 5772 5772 5771 5771 5770 5769 5768 5767 5765 5763 5761 5759 5757 5755 5753 5750 5748 5745 5742 5740 5737 5734 5732 5730 5728 5726 5723 5721 5719 5716 5715 5713 5712 5711 5710
5771 5770 5769 5768 5767 5767 5766 5765 5764 5763 5763 5762 5762 5761 5760 5758 5756 5754 5751 5749 5747 5745 5741 5739 5736 5733 5730 5727 5724 5721 5719 5716 5713 5710 5708 5705 5703 5700 5698 5696 5694 5693 5692
5762 5762 5762 5761 5760 5759 5758 5757 5756 5755 5754 5753 5752 5751 5750 5750 5746 5743 5741 5738 5735 5732 5730 5727 5723 5720 5717 5714 5711 5707 5704 5701 5697 5694 5691 5687 5684 5682 5680 5678 5676 5674 5673
5754 5754 5754 5753 5752 5751 5750 5749 5748 5747 5745 5744 5742 5741 5739 5738 5736 5734 5730 5726 5722 5719 5716 5713 5710 5706 5702 5698 5695 5691 5688 5684 5679 5675 5671 5668 5664 5662 5659 5657 5655 5653 5652
5746 5746 5745 5745 5744 5743 5742 5741 5739 5738 5736 5735 5732 5730 5727 5725 5723 5721 5718 5714 5711 5707 5703 5699 5695 5690 5685 5681 5677 5672 5668 5663 5659 5655 5651 5647 5643 5639 5636 5634 5632 5629 5628
5738 5738 5737 5736 5736 5735 5733 5732 5730 5728 5726 5725 5722 5720 5716 5713 5710 5708 5706 5703 5698 5694 5690 5686 5682 5677 5672 5666 5661 5655 5650 5645 5640 5635 5630 5626 5621 5617 5613 5610 5607 5604 5602
5730 5730 5729 5728 5727 5726 5725 5723 5721 5719 5716 5714 5711 5708 5705 5701 5698 5695 5693 5690 5687 5682 5677 5671 5667 5662 5657 5651 5646 5639 5633 5627 5622 5616 5611 5605 5600 5595 5590 5586 5582 5578 5575
5722 5721 5721 5720 5719 5717 5716 5714 5711 5709 5706 5703 5700 5696 5692 5689 5685 5681 5677 5675 5672 5669 5664 5658 5651 5645 5639 5634 5628 5622 5615 5609 5602 5596 5589 5583 5577 5571 5566 5560 5555 5550 5546
5713 5713 5712 5712 5710 5709 5707 5705 5702 5700 5696 5693 5689 5685 5681 5677 5672 5668 5663 5659 5657 5655 5649 5643 5635 5628 5621 5615 5608 5601 5595 5588 5581 5574 5567 5559 5552 5545 5538 5530 5523 5516 5509
5705 5704 5704 5703 5702 5700 5698 5696 5693 5690 5686 5683 5679 5674 5670 5665 5660 5655 5650 5644 5640 5636 5634 5627 5618 5611 5603 5596 5588 5581 5574 5566 5558 5549 5540 5531 5522 5513 5503 5494 5485 5476 5468
5696 5696 5696 5695 5693 5692 5689 5687 5684 5680 5676 5672 5668 5663 5658 5653 5648 5642 5636 5630 5623 5617 5612 5607 5598 5590 5582 5575 5566 5558 5550 5540 5530 5518 5507 5496 5485 5475 5465 5455 5445 5438 5431
5687 5688 5687 5686 5685 5682 5680 5677 5674 5670 5666 5661 5656 5651 5646 5640 5635 5628 5622 5615 5607 5599 5593 5588 5578 5569 5561 5552 5544 5533 5523 5512 5500 5486 5473 5461 5449 5439 5430 5423 5417 5412 5408
5679 5679 5678 5677 5675 5673 5670 5667 5663 5659 5655 5649 5644 5639 5633 5627 5621 5614 5606 5599 5591 5582 5574 5569 5562 5551 5541 5530 5521 5510 5497 5483 5469 5454 5442 5430 5419 5412 5406 5401 5398 5395 5393
5671 5670 5670 5668 5666 5663 5660 5657 5653 5648 5643 5637 5632 5626 5619 5613 5606 5598 5590 5582 5573 5564 5555 5547 5541 5530 5518 5505 5495 5483 5469 5453 5438 5425 5415 5407 5400 5395 5390 5386 5383 5381 5379
5663 5662 5661 5659 5656 5653 5650 5646 5641 5636 5631 5625 5619 5612 5605 5598 5590 5582 5573 5564 5555 5546 5536 5527 5518 5508 5495 5480 5466 5455 5444 5428 5415 5402 5396 5390 5385 5381 5376 5372 5370 5368 5366
5654 5653 5651 5649 5646 5643 5639 5635 5630 5625 5619 5612 5605 5598 5590 5582 5574 5565 5557 5547 5538 5528 5518 5507 5496 5484 5470 5455 5441 5428 5417 5409 5398 5385 5384 5377 5372 5368 5363 5359 5356 5354 5353
5646 5644 5642 5640 5636 5632 5628 5624 5618 5612 5606 5599 5592 5584 5576 5567 5559 5550 5540 5530 5518 5506 5496 5484 5472 5458 5444 5429 5417 5406 5397 5391 5386 5375 5370 5366 5359 5356 5351 5347 5344 5342 5340
5637 5636 5633 5630 5626 5621 5617 5612 5606 5600 5593 5585 5578 5570 5562 5553 5544 5535 5525 5514 5500 5484 5471 5459 5447 5431 5419 5407 5399 5391 5382 5375 5369 5360 5355 5353 5347 5343 5338 5333 5330 5328 5327
5628 5626 5623 5619 5615 5611 5605 5600 5594 5587 5580 5572 5563 5555 5547 5538 5528 5519 5509 5497 5482 5466 5451 5435 5423 5411 5400 5390 5383 5377 5369 5363 5357 5346 5338 5337 5334 5330 5325 5319 5315 5314 5313
5619 5616 5613 5609 5604 5600 5594 5588 5581 5574 5567 5558 5549 5540 5531 5522 5512 5502 5491 5479 5464 5446 5429 5414 5402 5393 5385 5377 5369 5363 5356 5349 5345 5337 5326 5322 5319 5316 5314 5308 5302 5300 5299
5610 5607 5603 5598 5594 5588 5582 5576 5569 5562 5554 5546 5536 5526 5515 5505 5493 5481 5470 5457 5444 5429 5414 5401 5390 5381 5373 5365 5357 5349 5343 5336 5330 5325 5317 5311 5306 5301 5302 5298 5291 5288 5287